User: anonymous   Login
Location: Deer Path Park
(40.5570°N, 74.8450°W)
Time: 00:12:40
(UTC-05:00)
Language:

Iridium 49 - Orbit

View from above orbital plane
View from above orbital plane
View from above satellite
View from above satellite

Ground track
Ground track

The orbit data is extracted from the following two-line orbital elements,

1 25108U 97082E   14356.30576906  .00000995  00000-0  34802-3 0   429
2 25108 086.3975 274.8974 0002221 097.8126 061.0818 14.34219423890247
Epoch (UTC): 22 December 2014 07:20:18
Eccentricity: 0.0002221
inclination: 86.3975°
perigee height: 776 km
apogee height: 779 km
right ascension of ascending node: 274.8974°
argument of perigee: 97.8126°
revolutions per day: 14.34219423
mean anomaly at epoch: 61.0818°
orbit number at epoch: 89024

The dashed part of the orbit path shows where the satellite is in the earth's shadow,  

DLR